Location: Guadanolo
(41.9167°N, 12.9333°E)
Time: 21:28:56
(UTC+00:00)

SL-16 R/B - Pass Details

Date: 16 September 2019
Orbit: 842 x 846 km, 71.0° (Epoch: 18 October)

Event Time Altitude Azimuth Distance (km) Brightness Sun altitude
Rises 17:53:15 0° 327° (NNW) 3,414 6.1 -7.6°
Reaches altitude 10° 17:55:54 10° 318° (NW) 2,475 5.5 -8.0°
Maximum altitude 18:00:56 34° 256° (WSW) 1,373 4.0 -9.0°
Drops below altitude 10° 18:05:56 10° 193° (SSW) 2,460 4.6 -9.9°
Sets 18:08:34 0° 184° (S) 3,390 5.3 -10.4°
